Theta_e
318 322 325 326 330 331 332 335 336 337 337 332 334 337 342 346 346 345 345 344 343 341 339 339 338 337 335 334 333 332 331 331 332 330 329 327 328 328 328 329 328 331 329
319 322 326 329 330 331 331 333 335 337 335 337 340 342 345 346 346 345 345 342 341 339 338 337 337 334 334 333 332 332 332 331 331 332 328 327 327 327 326 327 327 329 330
318 324 328 331 330 331 331 333 335 337 338 340 342 344 346 346 345 343 343 341 338 338 337 336 336 335 334 333 333 333 331 330 330 330 328 326 326 326 327 327 328 329 327
321 327 331 334 331 331 333 336 337 338 340 342 344 345 346 345 342 340 339 338 339 337 336 336 335 334 334 334 332 331 330 330 330 330 328 326 325 325 326 325 326 326 326
322 329 334 336 332 332 335 337 339 341 342 343 345 345 344 342 340 340 340 340 339 337 336 335 334 333 332 333 331 331 330 330 329 328 327 325 324 324 326 325 326 325 326
328 333 337 336 334 336 339 341 342 343 344 344 344 343 342 340 339 338 339 338 337 336 335 334 333 330 330 329 328 328 330 329 328 327 326 326 326 325 325 325 325 326 327
329 335 339 337 338 339 341 342 342 343 343 343 341 340 340 338 338 338 334 335 334 335 335 335 334 333 331 330 328 328 326 327 329 329 326 325 325 325 325 325 326 325 326
328 338 338 340 341 340 342 344 344 343 343 341 340 338 338 338 335 333 330 333 334 334 334 334 334 334 332 331 328 328 328 328 328 329 330 326 326 325 326 326 325 325 323
328 337 338 341 340 342 343 342 340 337 336 335 337 336 335 333 331 330 331 334 333 333 332 333 333 332 330 329 329 330 330 327 326 327 328 328 326 326 327 325 325 324 323
334 339 340 340 340 341 339 336 334 333 332 332 331 331 330 331 331 331 331 331 330 330 329 328 328 330 328 328 328 329 328 326 326 326 325 326 325 324 324 325 325 324 323
335 340 340 339 338 335 333 330 330 329 329 328 327 327 327 329 329 329 329 330 329 328 329 327 326 326 327 326 328 327 328 324 325 328 327 324 323 323 323 323 325 325 325
335 337 336 334 332 331 329 327 326 326 326 326 326 326 324 328 329 328 328 329 328 329 327 326 327 326 325 326 327 327 326 325 326 324 324 323 324 323 323 325 326 325 325
334 333 333 332 330 328 327 326 326 326 327 327 327 326 325 322 327 327 327 327 327 328 327 327 327 327 327 326 327 326 325 325 324 323 322 322 322 323 323 323 323 322 322
332 332 332 330 329 328 328 327 328 327 327 327 327 326 325 324 322 323 325 326 327 327 326 324 325 325 325 324 323 323 324 324 324 323 322 321 321 321 322 321 322 322 324
332 332 331 330 329 327 327 329 328 328 328 327 326 325 325 325 326 326 326 326 324 325 323 322 324 322 321 322 323 323 324 324 323 323 323 322 322 321 321 321 322 323 323
330 330 326 324 324 324 323 323 325 325 325 325 325 325 324 324 324 324 325 325 324 324 323 323 322 322 322 322 323 323 323 323 323 322 322 321 321 322 321 321 323 323 323
329 327 327 326 326 325 324 323 317 321 323 323 324 323 324 324 324 324 324 323 322 323 322 322 322 322 322 321 322 322 322 321 322 322 322 322 322 320 321 320 321 322 321
328 327 328 326 325 327 327 326 323 323 318 318 322 323 324 323 323 322 322 322 321 322 321 321 322 323 322 322 321 321 321 321 322 322 323 323 322 321 320 320 321 323 324
329 327 327 327 327 327 326 326 324 320 316 316 319 319 320 320 320 320 321 321 321 321 321 321 323 323 321 321 321 322 321 323 323 323 324 322 322 322 321 321 321 321 320
328 328 327 326 326 326 326 324 320 318 320 321 319 318 320 321 321 320 321 322 322 322 321 322 321 321 321 322 323 322 322 321 322 322 321 321 321 321 321 321 322 322 323
325 326 326 327 326 326 325 322 321 321 321 320 319 319 319 316 313 315 317 317 317 319 319 320 320 320 321 323 323 322 321 323 321 320 321 320 321 322 322 323 325 325 325
325 325 326 326 326 325 325 323 322 321 320 319 315 315 317 311 308 307 307 309 310 313 315 317 318 318 319 319 321 322 323 323 323 322 322 323 322 324 325 325 325 326 326
327 325 324 325 325 324 323 322 321 320 319 316 314 311 309 305 305 303 303 305 305 306 308 307 308 307 311 316 318 319 318 318 320 323 325 326 323 322 322 321 321 319 313
328 324 324 324 324 323 322 321 321 319 316 314 310 308 305 304 300 300 299 299 299 298 299 300 301 303 310 313 315 317 318 315 319 321 321 316 313 311 310 307 307 307 307
327 323 323 323 323 321 320 319 316 313 309 307 304 303 302 301 298 296 295 295 294 295 295 296 298 302 304 305 306 309 312 314 313 312 311 310 305 304 301 300 300 299 298
323 322 321 318 316 314 313 310 309 307 304 302 302 300 299 296 294 293 293 293 292 293 293 294 295 297 298 299 301 303 304 305 305 305 303 302 301 298 297 295 294 295 295
Wind_Speed
24 23 23 25 23 22 23 24 23 19 19 20 20 19 19 19 18 18 16 15 16 15 16 15 13 11 10 10 9 8 7 6 6 3 3 4 3 4 6 8 11 8 11
25 25 24 22 21 21 24 23 19 20 21 20 19 20 20 19 20 20 18 16 18 17 15 14 12 11 11 10 9 8 7 7 6 6 5 6 4 5 5 9 13 8 9
25 25 25 24 21 23 22 20 20 21 21 20 21 22 22 22 22 22 18 18 20 17 19 16 15 14 13 11 9 9 8 8 6 6 7 8 8 10 11 12 12 10 11
24 25 26 25 23 20 19 20 22 22 22 22 22 21 22 22 22 22 20 20 16 16 18 15 15 15 14 12 10 10 9 9 7 7 9 8 8 9 13 14 10 9 10
25 26 28 24 18 17 19 20 20 21 22 22 22 21 20 20 22 19 18 17 15 14 14 13 13 14 13 13 12 12 12 9 9 10 10 8 9 10 9 8 10 13 11
26 26 24 21 20 22 21 22 23 22 21 21 22 22 21 19 21 21 19 16 14 14 14 13 12 13 12 14 14 13 14 13 12 10 9 13 11 11 11 12 14 13 5
26 26 23 24 24 26 24 23 22 22 21 22 24 24 20 21 22 21 19 14 14 12 12 12 11 10 13 13 14 13 14 12 11 12 14 16 14 15 15 14 13 13 8
24 22 22 27 27 27 26 24 23 24 24 23 21 21 25 25 23 21 18 12 10 9 9 10 11 13 14 14 15 14 12 9 8 7 10 13 13 19 14 12 13 10 10
24 20 24 27 28 30 27 26 25 27 22 23 28 27 23 22 20 18 15 11 9 7 7 8 10 11 13 17 17 16 13 10 10 8 9 11 11 16 15 14 14 13 5
22 24 24 26 28 30 29 26 24 27 31 25 19 17 19 20 18 16 13 11 10 9 9 9 11 11 13 14 18 16 14 11 11 11 11 11 9 16 15 11 12 12 8
19 23 23 23 28 31 29 30 32 27 26 23 19 16 17 17 16 14 13 10 11 11 11 10 10 12 15 12 11 13 12 15 14 12 12 12 13 15 11 13 12 11 11
20 24 25 27 29 32 35 29 30 30 26 21 21 17 13 15 15 13 11 10 12 12 12 11 13 12 12 13 14 13 13 15 12 12 13 13 14 13 10 10 11 8 6
20 22 27 30 33 35 34 30 26 24 23 19 17 15 12 10 13 12 11 11 12 13 13 18 18 18 19 16 16 18 16 11 11 11 14 13 12 11 10 9 8 9 7
24 25 30 32 29 30 28 27 25 21 19 17 17 16 13 11 11 12 13 14 15 19 22 21 19 16 15 19 19 13 9 10 12 13 12 11 11 12 9 9 11 9 7
27 27 28 30 31 27 23 19 21 16 18 19 17 17 16 13 12 13 14 14 15 21 22 17 15 16 15 13 11 9 8 10 10 10 12 11 10 10 9 9 7 7 5
27 25 24 27 27 26 25 25 19 19 19 18 17 18 13 13 15 13 13 14 19 23 17 14 13 14 13 12 10 10 8 8 9 9 9 10 10 10 10 10 7 8 7
27 25 27 28 25 23 23 23 17 22 22 19 16 16 17 18 16 15 16 18 18 18 18 13 13 12 11 11 10 9 8 8 9 9 10 10 10 9 11 12 10 7 8
27 28 27 26 24 23 23 23 21 19 17 19 19 20 20 19 17 17 17 16 14 14 18 17 12 12 11 10 9 7 8 9 8 8 8 8 8 10 10 11 10 8 6
28 24 25 24 22 23 22 22 21 21 22 25 24 23 22 21 18 17 14 13 12 16 12 12 11 11 10 9 8 7 8 8 8 7 7 8 8 8 8 6 7 7 7
23 27 25 23 22 22 22 23 23 23 22 20 18 23 21 13 13 14 15 13 12 13 11 10 10 10 9 8 7 6 7 7 8 7 7 8 6 6 6 4 5 7 9
23 23 27 22 21 22 22 23 24 23 22 20 19 14 16 19 18 19 19 18 16 15 14 13 12 9 7 6 6 6 6 6 8 7 6 6 6 6 5 6 5 6 6
24 21 21 22 22 22 23 24 24 24 24 23 20 22 24 22 21 20 19 17 17 17 15 14 13 11 11 9 8 7 5 6 6 6 5 4 4 4 4 5 5 7 6
23 23 22 22 22 27 25 25 25 25 24 21 21 20 20 21 23 20 19 20 18 17 16 13 12 11 10 10 9 11 8 7 5 3 4 5 5 6 6 6 7 8 9
24 23 22 24 24 24 25 25 25 25 23 23 20 19 19 18 18 21 19 17 18 18 19 19 19 17 17 17 15 14 12 11 10 10 10 11 12 14 15 17 18 16 14
24 25 24 24 25 25 26 25 25 24 23 22 21 20 19 19 20 20 20 20 20 21 23 23 25 28 27 25 24 21 18 17 18 18 18 19 19 19 17 16 15 17 18
26 26 24 24 25 27 28 26 25 26 25 24 22 20 20 21 22 23 26 26 29 30 30 31 32 32 32 31 28 24 23 22 21 21 21 20 20 20 20 19 19 16 17
Wind_Direction
271 265 258 256 251 242 233 233 229 224 219 214 213 206 199 194 186 184 185 188 198 199 195 193 193 189 193 197 193 188 195 208 238 160 145 164 154 196 225 191 176 160 174
273 268 255 250 241 230 226 225 218 212 208 204 198 195 191 185 179 181 183 191 189 186 186 185 182 181 182 182 186 194 203 198 210 173 156 164 156 170 154 172 169 150 162
277 268 259 251 231 223 220 214 207 203 198 191 191 187 181 177 178 184 185 188 191 189 189 179 184 180 182 187 189 194 189 192 187 178 154 165 152 155 138 133 144 139 159
276 268 257 251 233 218 205 196 191 188 183 179 182 180 176 174 180 184 189 186 184 186 189 186 183 185 189 187 190 187 183 186 183 176 161 154 150 154 149 138 126 126 131
281 267 253 245 224 204 192 186 179 174 172 169 167 171 170 173 171 175 181 184 174 176 184 184 186 192 193 197 192 190 183 181 177 173 160 154 152 159 162 154 137 137 134
287 265 247 225 195 186 170 164 162 160 161 162 167 166 165 167 173 179 177 169 175 181 184 187 190 195 204 213 211 206 188 173 171 169 164 167 163 167 159 159 151 150 135
282 258 220 199 176 167 155 154 155 152 154 161 159 159 160 161 166 172 173 171 176 180 184 188 188 197 207 202 207 204 198 195 191 184 175 172 165 176 171 165 170 169 158
286 228 196 182 173 147 150 153 149 149 153 149 150 155 150 158 166 171 170 167 172 182 195 197 198 200 196 188 179 177 179 183 188 188 188 186 183 175 176 173 162 144 137
277 202 190 172 159 147 149 150 147 140 141 140 149 147 148 156 168 171 166 165 168 171 174 183 187 184 192 192 173 170 168 175 183 181 178 170 177 176 170 159 161 156 136
257 197 179 167 153 146 142 140 138 133 129 129 126 132 148 150 156 162 163 161 152 148 159 168 176 183 174 176 171 169 167 170 161 154 154 152 161 175 174 181 172 163 139
235 180 167 159 142 138 133 129 127 122 121 122 121 125 133 144 151 162 166 155 160 158 157 155 166 168 159 155 186 180 181 162 158 154 151 144 151 168 182 193 181 177 185
188 161 143 137 131 129 124 120 125 123 121 126 122 119 122 139 147 152 156 158 161 160 151 150 156 165 169 163 160 167 165 158 154 156 155 148 154 166 176 176 179 184 190
144 140 133 131 130 126 122 122 120 124 128 132 133 131 128 129 136 142 146 151 152 141 137 136 129 132 131 134 136 142 140 148 149 153 154 157 166 166 162 158 172 195 193
140 132 130 126 123 124 124 131 132 135 139 137 135 136 133 129 134 141 142 135 137 138 138 136 134 134 135 133 137 138 146 151 155 153 153 157 161 167 169 175 181 178 186
131 127 126 122 118 116 118 134 134 141 148 143 143 145 145 146 154 155 151 153 151 150 142 135 132 130 133 135 137 138 141 144 148 152 157 157 161 170 172 178 173 177 191
129 126 127 123 124 122 116 101 113 126 129 127 134 143 144 153 147 144 149 157 157 151 140 136 133 139 141 142 137 136 139 139 147 152 153 162 170 173 176 180 187 193 192
128 134 127 128 127 121 119 121 107 103 115 120 132 141 144 141 144 138 137 141 147 150 133 133 135 140 143 142 139 142 142 147 151 161 165 166 170 179 187 192 195 196 205
133 135 129 126 122 125 129 130 123 119 109 107 122 127 128 130 134 136 139 139 135 148 145 140 136 142 146 145 144 144 147 151 157 160 167 167 166 172 183 195 199 209 208
131 122 119 120 128 130 130 125 119 116 117 117 118 119 120 120 124 128 132 130 133 136 137 139 136 143 146 145 150 148 154 164 163 169 165 162 171 175 183 203 222 214 222
119 126 125 123 126 127 128 122 120 122 123 128 126 129 128 118 112 109 112 114 124 123 132 136 134 137 138 143 152 154 160 165 163 158 165 171 178 193 199 214 216 217 219
123 123 126 122 126 131 128 128 130 132 131 130 124 125 122 113 107 107 109 108 111 113 123 128 128 129 122 125 134 145 154 148 165 166 167 179 185 196 203 218 225 232 251
119 120 126 131 133 132 131 131 132 131 134 128 114 114 120 105 106 103 100 99 103 109 113 118 117 118 119 120 122 119 125 123 132 147 157 164 180 208 239 267 279 287 296
130 127 128 128 130 129 126 128 131 136 130 124 119 107 105 101 105 99 95 96 94 96 99 94 94 92 103 112 120 126 113 103 87 104 125 107 76 63 55 63 65 67 59
133 129 125 124 125 125 125 126 131 129 122 120 116 109 108 106 102 100 96 92 88 87 87 87 91 89 92 99 104 110 110 101 104 113 125 109 97 95 91 85 80 69 60
127 126 126 126 122 120 116 119 120 118 114 117 116 112 108 107 103 100 97 97 95 93 90 89 89 92 91 89 89 91 97 102 101 102 101 102 95 91 84 80 73 74 71
124 122 120 117 117 119 119 116 115 118 116 113 113 111 111 109 107 107 109 107 103 100 95 92 92 91 90 88 88 90 89 92 96 98 96 93 91 88 84 79 79 67 68